sat.trackr.live / text

‹ back to catalog

STARLINK-11272 [DTC]

NORAD 60723 · 2024-152D

PAYLOAD ACTIVE UNKNOWN

§ Identity

Operator
Country
US
Launch date
2024-08-28
Launch site
AFETR
Launch vehicle
Mass (kg)
RCS (m²)

Purposes: comms

External: N2YO · Heavens-Above · Gunter

§ Orbital elements

Epoch: 2026-09-21T08:15:46.569600Z

Period
91.74 min
Inclination
53.1584°
Eccentricity
0.0001820
Mean motion
15.69660781 rev/d
Perigee alt
358.6 km
Apogee alt
361.1 km
Semi-major
6,738.0 km
B*
8.1938e-5
RAAN
231.8375°
Arg perigee
86.0768°
Mean anomaly
274.0458°
Rev number
11,956

§ Raw data

STARLINK-11272 [DTC]1 60723U 24152D   26264.34428900  .00009329  00000+0  81938-4 0  99972 60723  53.1584 231.8375 0001820  86.0768 274.0458 15.69660781119562

JSON: /api/v1/satellites/60723 · /tle

For live sub-satellite position, see the globe view (requires WebGL).

§ Visibility from observer

Set your observer location to see the next 7 days of passes ≥ 10°. The values pass through the URL so the page stays shareable.

No JS? Fill the form by hand. The geolocation button needs JavaScript.